This is the latest recevied weather packets stored in our database for station/object KR4DFQ. If no packets are shown the sender has not sent any weather packets the latest 10 day(s).
| Time | Temp. | Humidity | Pressure | Rain* | Wind** | Luminosity | Snow |
|---|---|---|---|---|---|---|---|
| 1787859633 | 31.67° C | 56% | 1017.4 hPa | 0 mm | - | 196 W/m² | - |
| 1787859332 | 31.67° C | 57% | 1017.2 hPa | 0 mm | - | 249 W/m² | - |
| 1787859028 | 31.67° C | 58% | 1017.1 hPa | 0 mm | - | 264 W/m² | - |
| 1787858724 | 31.67° C | 57% | 1017.2 hPa | 0 mm | - | 284 W/m² | - |
| 1787858420 | 32.22° C | 56% | 1017.4 hPa | 0 mm | - | 270 W/m² | - |
| 1787858119 | 33.89° C | 52% | 1017.2 hPa | 0 mm | - | 277 W/m² | - |
| 1787857815 | 35.56° C | 51% | 1017.3 hPa | 0 mm | - | 326 W/m² | - |
| 1787857510 | 35.56° C | 50% | 1017.2 hPa | 0 mm | - | 866 W/m² | - |
| 1787857209 | 35.56° C | 48% | 1017.1 hPa | 0 mm | - | 904 W/m² | - |
| 1787856903 | 35° C | 50% | 1017 hPa | 0 mm | - | 890 W/m² | - |
| 1787856603 | 35° C | 54% | 1017 hPa | 0 mm | - | 891 W/m² | - |
| 1787856298 | 35° C | 54% | 1016.5 hPa | 0 mm | - | 896 W/m² | - |
| 1787855994 | 35° C | 52% | 1016.6 hPa | 0 mm | - | 903 W/m² | - |
| 1787855693 | 35° C | 54% | 1016.5 hPa | 0 mm | - | 914 W/m² | - |
| 1787855388 | 35° C | 54% | 1016.6 hPa | 0 mm | - | 920 W/m² | - |
| 1787855084 | 35° C | 55% | 1016.8 hPa | 0 mm | - | 927 W/m² | - |
| 1787854779 | 35° C | 54% | 1017 hPa | 0 mm | - | 931 W/m² | - |
| 1787854478 | 35.56° C | 53% | 1017.3 hPa | 0 mm | - | 932 W/m² | - |
| 1787854173 | 35° C | 53% | 1017.2 hPa | 0 mm | - | 935 W/m² | - |
| 1787853868 | 35.56° C | 54% | 1017.4 hPa | 0 mm | - | 933 W/m² | - |
| 1787853567 | 35.56° C | 52% | 1017.3 hPa | 0 mm | - | 936 W/m² | - |
| 1787853262 | 35° C | 54% | 1017.5 hPa | 0 mm | - | 933 W/m² | - |
| 1787852961 | 35° C | 53% | 1017.4 hPa | 0 mm | - | 934 W/m² | - |
| 1787852656 | 35° C | 54% | 1017.3 hPa | 0 mm | - | 932 W/m² | - |
| 1787852355 | 35.56° C | 52% | 1017.3 hPa | 0 mm | - | 932 W/m² | - |
* Rain latest hour (hover to see other rain measurements)
** Current wind speed in m/s (hover to see current wind gust speed)